Retour au catalogue

STARLINK-36179

ActifCommunicationsVLEO
NORAD 67119·PAYLOAD·🇺🇸 United States

Lancé Dec 15, 2025 depuis Cape Canaveral Space Force Station

Loading…

Prochains Passages (prochaines 24 heures)

TLE

FraisSource: CelesTrak SupGP

Époque: Sep 15, 2026, 03:52 UTC

1 67119C 25299T   26258.16159722  .00020399  00000+0  73894-3 0  2581
2 67119  43.0026 178.8814 0001343 273.7402 113.5337 15.27564890    15

Suivez STARLINK-36179 en temps réel avec AllMySat

Download on the App Store